User: anonymous   Login
Location: Caltech
(34.1382°N, 118.1253°W)
Time: 21:31:20
(UTC-08:00)
Language:

PANSAT - Orbit

View from above orbital plane
View from above orbital plane
View from above satellite
View from above satellite

Ground track
Ground track

The orbit data is extracted from the following two-line orbital elements,

1 25520U 98064B   14330.83476574  .00005386  00000-0  20367-3 0  6244
2 25520 028.4566 209.1711 0004418 094.2928 349.2473 15.24629005891474
Epoch (UTC): 26 November 2014 20:02:03
Eccentricity: 0.0004418
inclination: 28.4566°
perigee height: 489 km
apogee height: 495 km
right ascension of ascending node: 209.1711°
argument of perigee: 94.2928°
revolutions per day: 15.24629005
mean anomaly at epoch: 349.2473°
orbit number at epoch: 89147

The dashed part of the orbit path shows where the satellite is in the earth's shadow,  

DLR